Content
SEND FEEDBACK

Daily
Averages
Monthly
Summary
United States of America

KILLEEN, TEXAS


Home > North America > United States > Texas
Elevation: 924 feet     Latitude: 31 09N     Longitude: 097 43W

WEATHER
 
SELECT A DAY
Number of Records: 131,489;   Date Range: 1/3/95 - 9/30/14
 
SHARE

PRINT THIS DATA

[ ← Previous Day ]
WEATHER ALMANAC - JANUARY 31, 2013
[ Next Day → ]
[ °C ]   °F
Weather ElementAverageHighLow
Temperature53.3 °F71.1 °F (3:56 pm)34 °F (4:56 am)
Dewpoint18.5 °F21.9 °F (11:56 pm)14 °F (11:56 am)
Humidity29.6 %56 % (4:56 am)12 % (1:56 pm)
Barometer30.24 in30.36 in (10:56 am)30.14 in (4:56 pm)
Wind Speed6.6 mph17.3 mph (3:56 pm)
Wind Gust21.9 mph (3:56 pm)
Weather ElementAverage
Visibility10 mi
Wind DirectionSSE (158.3 °)

Weather ElementTotal
Precipitation---
Heating Degree Days12.5 (Base 65)
Growing Degree Days2.6 (Base 50)
Averaged from 23 records on January 31, 2013
WEATHER CONDITIONS BREAKOUT
WIND DIRECTION BREAKOUT
WEATHER BY HOUR - JANUARY 31, 2013
[ °C ]   °F
Local TimeTemperatureDewpointHumidityBarometerVisibilityWind DirectionWind SpeedGust SpeedPrecipitationEventsConditions
1:56 AM37.9 °F19.0 °F47 %30.19 in10.0 miSouth (170°)4.6 mphClear
2:56 AM39.0 °F18.0 °F43 %30.18 in10.0 miCalmClear
3:56 AM35.1 °F19.9 °F54 %30.16 in10.0 miCalmClear
4:56 AM34.0 °F19.9 °F56 %30.16 in10.0 miCalmClear
5:56 AM34.0 °F19.9 °F56 %30.18 in10.0 miCalmClear
6:56 AM35.1 °F19.9 °F54 %30.31 in10.0 miSouth (170°)5.8 mphClear
7:56 AM39.0 °F19.9 °F46 %30.33 in10.0 miSSW (200°)5.8 mphClear
8:56 AM48.0 °F19.0 °F32 %30.35 in10.0 miSSW (210°)4.6 mphClear
9:56 AM55.0 °F17.1 °F23 %30.35 in10.0 miSSW (210°)9.2 mphClear
10:56 AM59.0 °F18.0 °F20 %30.36 in10.0 miSW (220°)9.2 mphClear
11:56 AM63.0 °F14.0 °F15 %30.23 in10.0 miSSW (210°)13.8 mphClear
12:56 PM66.9 °F15.1 °F14 %30.20 in10.0 miSSW (210°)11.5 mphClear
1:56 PM68.0 °F14.0 °F12 %30.17 in10.0 miWSW (240°)15.0 mphClear
2:56 PM69.1 °F14.0 °F12 %30.15 in10.0 miSW (220°)13.8 mphClear
3:56 PM71.1 °F16.0 °F12 %30.23 in10.0 miSouth (180°)17.3 mph21.9 mphClear
4:56 PM70.0 °F17.1 °F13 %30.14 in10.0 miSouth (170°)9.2 mphClear
5:56 PM64.9 °F18.0 °F16 %30.15 in10.0 miSouth (180°)5.8 mphClear
6:56 PM61.0 °F19.9 °F21 %30.17 in10.0 miSouth (180°)3.5 mphClear
7:56 PM57.0 °F21.0 °F25 %30.31 in10.0 miESE (110°)3.5 mphClear
8:56 PM54.0 °F21.0 °F28 %30.32 in10.0 miSSE (150°)3.5 mphClear
9:56 PM57.0 °F21.0 °F25 %30.33 in10.0 miSSW (200°)6.9 mphClear
10:56 PM55.0 °F21.0 °F27 %30.24 in10.0 miSSW (210°)5.8 mphClear
11:56 PM53.1 °F21.9 °F30 %30.24 in10.0 miSSW (200°)3.5 mphClear
Hourly data recorded from KHLR, located miles away from Killeen, Texas







STORIES FROM OUR PARTNERS